(213553) = 2002 KW4

Discovered at Socorro on 2002-05-16 by LINEAR.

Orbit

Orbit type: Main Belt

Note: WebGL enabled browser required.

epoch2023-09-13.0
epoch JD2460200.5
perihelion date2023-08-20.50354
perihelion JD2460177.00354
argument of perihelion (°)103.66460
ascending node (°)141.49922
inclination (°)2.16361
eccentricity0.1769990
perihelion distance (AU)1.9124667
Tisserand w.r.t. Jupiter3.6
ΔV w.r.t. Earth (km/sec)8.6
semimajor axis (AU)2.3237719
mean anomaly (°)6.53757
mean daily motion (°/day)0.27823620
aphelion distance (AU)2.735
period (years)3.54
P-vector [x]-0.41959403
P-vector [y]-0.84672122
P-vector [z]-0.32711470
Q-vector [x]0.90740757
Q-vector [y]-0.38193891
Q-vector [z]-0.17531163
absolute magnitude17.16
phase slope0.15
uncertainty0
referenceMPO 778477
observations used571
oppositions16
arc length (days)9231
first opposition used1998
last opposition used2023
residual rms (arc-secs)0.70
perturbers coarse indicatorM-v
perturbers precise indicator003Ek
first observation date used1998-03-05.0
last observation date used2023-06-13.0
computer nameMPCLINUX
JD of orbit computation2456552.351021
perihelion JD uncertainty (days)5.0660E-05
argument of perihelion uncertainty (°)1.1571E-04
ascending node uncertainty (°)1.1464E-04
inclination uncertainty (°)4.5099E-06
eccentricity uncertainty 3.8056E-08
perihelion distance uncertainty (AU)8.5768E-08
Minimum Orbit Intersection Distances (in AU)
for orbit epoch: 2460200.5, reference: E2023-VP5
Mercury1.44943
Venus1.18755
Earth0.89974
Mars0.36726
Jupiter2.27972
Saturn6.33854
Uranus16.1251
Neptune27.1485

Observations

586 total observations over interval: 1998 03 05.36687 – 2023 06 13.561320
These data are available for download (format description).

Date (UT) J2000 RA J2000 Dec Magn Location Ref
1998 03 05.36687 10 25 09.02 +11 06 14.2 19.8 V 691 – Steward Observatory, Kitt Peak-Spacewatch MPS 126750
1998 03 05.38790 10 25 07.75 +11 06 22.6 19.8 V 691 – Steward Observatory, Kitt Peak-Spacewatch MPS 126750
1998 03 05.40920 10 25 06.54 +11 06 32.2 18.7 V 691 – Steward Observatory, Kitt Peak-Spacewatch MPS 126750
2002 05 16.30721 16 51 25.90 -18 07 47.4 18.7   704 – Lincoln Laboratory ETS, New Mexico MPS 57812
2002 05 16.32215 16 51 25.24 -18 07 47.1 18.8   704 – Lincoln Laboratory ETS, New Mexico MPS 57812
2002 05 16.33709 16 51 24.56 -18 07 45.1 19.4   704 – Lincoln Laboratory ETS, New Mexico MPS 57812
2002 05 16.35217 16 51 23.88 -18 07 43.7 19.1   704 – Lincoln Laboratory ETS, New Mexico MPS 57812
2002 05 16.36713 16 51 23.15 -18 07 41.6 19.1   704 – Lincoln Laboratory ETS, New Mexico MPS 57812
2002 05 21.32645 16 47 34.38 -17 59 15.6 19.3   704 – Lincoln Laboratory ETS, New Mexico MPS 57812
2002 05 21.34160 16 47 33.72 -17 59 13.4 19.4   704 – Lincoln Laboratory ETS, New Mexico MPS 57812
2002 05 21.35676 16 47 32.93 -17 59 12.5 19.3   704 – Lincoln Laboratory ETS, New Mexico MPS 57812
2002 05 21.37193 16 47 32.12 -17 59 10.7 18.9   704 – Lincoln Laboratory ETS, New Mexico MPS 57812
2002 06 06.30079 16 33 13.27 -17 37 33.3 18.8   704 – Lincoln Laboratory ETS, New Mexico MPS 57812
2002 06 06.31465 16 33 12.48 -17 37 32.0 18.9   704 – Lincoln Laboratory ETS, New Mexico MPS 57812
2002 06 06.32854 16 33 11.67 -17 37 31.4 19.1   704 – Lincoln Laboratory ETS, New Mexico MPS 57812
2002 06 06.34242 16 33 10.90 -17 37 29.9 18.8   704 – Lincoln Laboratory ETS, New Mexico MPS 57812
2002 06 06.35631 16 33 10.15 -17 37 28.9 18.9   704 – Lincoln Laboratory ETS, New Mexico MPS 57812
2002 06 08.30669 16 31 25.37 -17 35 47.3 18.6   704 – Lincoln Laboratory ETS, New Mexico MPS 57812
2002 06 08.32072 16 31 24.54 -17 35 46.6 19.3   704 – Lincoln Laboratory ETS, New Mexico MPS 57812
2002 06 08.33512 16 31 23.78 -17 35 46.0 19.1   704 – Lincoln Laboratory ETS, New Mexico MPS 57812
2002 06 08.36322 16 31 22.13 -17 35 44.7 19.8   704 – Lincoln Laboratory ETS, New Mexico MPS 57812
2003 10 22.45212 03 01 43.72 +13 43 10.4 21.5 V 691 – Steward Observatory, Kitt Peak-Spacewatch MPS 126356
2003 10 22.47883 03 01 42.27 +13 43 03.0 21.4 V 691 – Steward Observatory, Kitt Peak-Spacewatch MPS 126356
2003 10 22.50684 03 01 40.68 +13 42 55.8 22.1 V 691 – Steward Observatory, Kitt Peak-Spacewatch MPS 126356
2005 02 02.35403 09 52 08.21 +12 52 09.0 19.4 R 703 – Catalina Sky Survey MPS 126356
2005 02 02.36153 09 52 07.82 +12 52 11.7 19.6 R 703 – Catalina Sky Survey MPS 126356
2005 02 02.36904 09 52 07.39 +12 52 15.3 19.4 R 703 – Catalina Sky Survey MPS 126356
2005 02 02.37654 09 52 06.90 +12 52 16.7 20.2 R 703 – Catalina Sky Survey MPS 126356
2005 02 04.00015 09 50 35.42 +13 01 59.6 19.9 R 143 – Gnosca MPS 126356
2005 02 04.01578 09 50 34.42 +13 02 05.5 19.9 R 143 – Gnosca MPS 126356
2005 02 04.03140 09 50 33.52 +13 02 10.9 20.0 R 143 – Gnosca MPS 126356
2005 02 06.99142 09 47 40.49 +13 20 23.6 19.6 R 143 – Gnosca MPS 126356
2005 02 06.99838 09 47 40.03 +13 20 26.3 19.5 R 143 – Gnosca MPS 126356
2005 02 07.00538 09 47 39.56 +13 20 27.8 19.5 R 143 – Gnosca MPS 126356
2005 03 04.23064 09 22 50.95 +15 50 12.7 19.5 R G96 – Mt. Lemmon Survey MPS 127147
2005 03 04.23711 09 22 50.61 +15 50 14.4 19.5 R G96 – Mt. Lemmon Survey MPS 127147
2005 03 04.24358 09 22 50.28 +15 50 16.4 19.5 R G96 – Mt. Lemmon Survey MPS 127147
2005 03 04.25000 09 22 49.92 +15 50 18.3 19.6 R G96 – Mt. Lemmon Survey MPS 127147
2005 03 10.24279 09 18 18.74 +16 17 05.2 20.0 R G96 – Mt. Lemmon Survey MPS 127875
2005 03 10.25078 09 18 18.41 +16 17 07.1 19.8 R G96 – Mt. Lemmon Survey MPS 127875
2005 03 10.25880 09 18 18.07 +16 17 09.1 20.1 R G96 – Mt. Lemmon Survey MPS 127875
2005 03 10.26675 09 18 17.76 +16 17 10.8 19.5 R G96 – Mt. Lemmon Survey MPS 127875
2005 05 10.155097 09 34 43.870 +15 35 35.64 21.37 V 645 – Apache Point-Sloan Digital Sky Survey MPS 390289
2005 05 10.158569 09 34 44.097 +15 35 34.56 22.34   645 – Apache Point-Sloan Digital Sky Survey MPS 390289
2006 08 20.03926 23 11 30.88 -06 21 27.9 19.7 V A50 – Andrushivka Astronomical Observatory MPS 182518
2006 08 21.27661 23 10 29.98 -06 29 31.1 20.1 V 691 – Steward Observatory, Kitt Peak-Spacewatch MPS 175977
2006 08 21.29391 23 10 29.08 -06 29 38.0 20.1 V 691 – Steward Observatory, Kitt Peak-Spacewatch MPS 175977
2006 08 21.31121 23 10 28.15 -06 29 44.8 20.0 V 691 – Steward Observatory, Kitt Peak-Spacewatch MPS 175977
2006 08 22.27191 23 09 39.36 -06 36 00.2 18.7 R 807 – Cerro Tololo Observatory, La Serena MPS 182518
2006 08 23.19402 23 08 52.08 -06 42 11.0   807 – Cerro Tololo Observatory, La Serena MPS 182518
2006 08 23.26252 23 08 48.35 -06 42 38.8   807 – Cerro Tololo Observatory, La Serena MPS 182518
2006 08 28.29553 23 04 17.97 -07 17 21.2 19.7 V 691 – Steward Observatory, Kitt Peak-Spacewatch MPS 176909
2006 08 28.29736 23 04 17.86 -07 17 21.3 19.5 V 703 – Catalina Sky Survey MPS 176909
2006 08 28.30635 23 04 17.36 -07 17 25.9 20.1 V 703 – Catalina Sky Survey MPS 176909
2006 08 28.31283 23 04 16.97 -07 17 28.6 19.8 V 691 – Steward Observatory, Kitt Peak-Spacewatch MPS 176909
2006 08 28.31543 23 04 16.78 -07 17 28.9 19.8 V 703 – Catalina Sky Survey MPS 176909
2006 08 28.32451 23 04 16.35 -07 17 33.7 19.1 V 703 – Catalina Sky Survey MPS 176909
2006 08 28.33302 23 04 15.81 -07 17 37.1 19.8 V 691 – Steward Observatory, Kitt Peak-Spacewatch MPS 176909
2006 09 14.26956 22 48 36.75 -09 11 24.2 20.5 V 703 – Catalina Sky Survey MPS 178329
2006 09 14.27595 22 48 36.39 -09 11 26.9 20.4 V 703 – Catalina Sky Survey MPS 178329
2006 09 14.28238 22 48 36.00 -09 11 30.6 19.5 V 703 – Catalina Sky Survey MPS 178329
2006 09 14.28883 22 48 35.74 -09 11 31.7 19.8 V 703 – Catalina Sky Survey MPS 178329
2006 09 30.20662 22 37 08.61 -10 29 55.1 20.5 V G96 – Mt. Lemmon Survey MPS 182518
2006 09 30.21456 22 37 08.36 -10 29 56.7 20.1 V G96 – Mt. Lemmon Survey MPS 182518
2006 09 30.22244 22 37 08.07 -10 29 58.3 20.4 V G96 – Mt. Lemmon Survey MPS 182518
2006 09 30.23015 22 37 07.82 -10 30 00.1 20.4 V G96 – Mt. Lemmon Survey MPS 182518
2009 02 27.50459 15 09 18.10 -14 58 32.5 20.1 V G96 – Mt. Lemmon Survey MPS 278572
2009 02 27.51007 15 09 18.46 -14 58 33.5 20.3 V G96 – Mt. Lemmon Survey MPS 278572
2009 02 27.51556 15 09 18.79 -14 58 34.6 20.2 V G96 – Mt. Lemmon Survey MPS 278572
2009 02 27.52104 15 09 19.11 -14 58 35.0 20.1 V G96 – Mt. Lemmon Survey MPS 278572
2009 04 22.31777 15 22 42.50 -14 06 53.9   691 – Steward Observatory, Kitt Peak-Spacewatch MPS 284252
2009 04 22.33546 15 22 41.77 -14 06 49.8   691 – Steward Observatory, Kitt Peak-Spacewatch MPS 284252
2009 04 22.35315 15 22 41.07 -14 06 45.8   691 – Steward Observatory, Kitt Peak-Spacewatch MPS 284252
2009 04 22.36638 15 22 40.46 -14 06 43.6 19.0   704 – Lincoln Laboratory ETS, New Mexico MPS 284252
2009 04 22.37843 15 22 40.00 -14 06 39.3 19.5   704 – Lincoln Laboratory ETS, New Mexico MPS 284252
2009 04 22.39067 15 22 39.51 -14 06 36.9 19.2   704 – Lincoln Laboratory ETS, New Mexico MPS 284252
2009 04 22.40131 15 22 39.03 -14 06 34.2 19.5   704 – Lincoln Laboratory ETS, New Mexico MPS 284252
2009 04 22.41218 15 22 38.67 -14 06 31.5 19.6   704 – Lincoln Laboratory ETS, New Mexico MPS 284252
2009 04 26.38187 15 19 55.48 -13 50 52.0   691 – Steward Observatory, Kitt Peak-Spacewatch MPS 285645
2009 04 26.39953 15 19 54.65 -13 50 47.7   691 – Steward Observatory, Kitt Peak-Spacewatch MPS 285645
2009 04 26.41722 15 19 53.83 -13 50 43.4   691 – Steward Observatory, Kitt Peak-Spacewatch MPS 285645
2009 04 30.26459 15 16 56.04 -13 35 00.9 19.0 V 691 – Steward Observatory, Kitt Peak-Spacewatch MPS 285645
2009 04 30.26706 15 16 55.92 -13 35 00.2 19.0 V 691 – Steward Observatory, Kitt Peak-Spacewatch MPS 285645
2009 04 30.28225 15 16 55.13 -13 34 56.6 19.1 V 691 – Steward Observatory, Kitt Peak-Spacewatch MPS 285645
2009 04 30.28471 15 16 55.00 -13 34 55.9 19.1 V 691 – Steward Observatory, Kitt Peak-Spacewatch MPS 285645
2009 04 30.29745 15 16 54.34 -13 34 52.8 19.3 V 691 – Steward Observatory, Kitt Peak-Spacewatch MPS 285645
2009 04 30.29991 15 16 54.21 -13 34 52.4 19.5 V 691 – Steward Observatory, Kitt Peak-Spacewatch MPS 285645
